Wind_Speed
4 4 4 3 2 2 2 2 3 2 1 1 2 1 1 1 1 0 0 1 1 1 1 1 0 1 1 2 1 1 2 1 1 1 2 3 3 3 3 3 4 4 4
5 5 4 3 3 3 2 3 3 3 2 2 2 2 2 1 1 0 1 1 1 0 0 0 0 0 1 1 1 1 1 1 1 0 1 2 2 2 3 3 4 5 5
6 5 5 4 4 4 4 3 4 3 3 3 3 3 3 3 2 1 1 2 2 2 1 1 1 1 1 1 1 0 1 1 1 1 2 2 2 2 2 3 4 5 5
6 6 5 5 5 5 5 5 4 4 4 5 4 4 4 4 3 3 3 2 3 2 2 2 2 2 2 2 1 2 2 1 2 2 2 3 3 3 3 3 3 4 4
7 6 6 6 6 5 5 5 5 4 5 5 4 5 5 5 4 4 4 3 3 3 3 2 2 2 3 3 3 3 3 2 2 3 3 3 4 4 4 4 4 4 4
8 7 7 7 7 7 6 6 6 5 5 5 5 5 5 6 6 5 5 4 4 4 3 3 3 3 3 3 4 4 4 4 3 3 4 4 4 4 4 4 5 4 5
9 9 8 8 8 8 7 7 7 6 7 7 6 6 7 7 7 6 6 5 5 4 4 4 4 4 4 4 4 4 4 5 5 5 5 5 5 5 5 5 6 5 5
9 10 10 10 9 9 8 8 8 8 8 7 7 8 8 8 7 7 7 6 6 6 5 5 5 5 5 5 5 5 5 5 6 5 5 5 5 5 6 6 6 6 6
10 11 11 11 9 9 9 9 9 9 9 9 8 9 9 9 8 8 7 7 7 7 6 6 6 6 6 5 5 6 6 6 6 7 6 6 6 7 7 7 7 7 7
11 11 11 11 10 10 11 11 10 10 10 10 10 10 9 10 9 8 8 8 8 8 7 7 6 7 7 7 7 6 7 7 8 8 8 8 8 8 8 8 8 8 9
12 12 12 11 11 11 11 11 11 11 10 10 11 11 10 10 10 10 9 9 9 9 8 8 8 8 8 8 8 8 8 8 8 8 8 8 9 9 9 9 10 10 10
13 12 12 12 12 12 12 12 11 12 11 11 11 11 11 11 11 11 11 10 10 10 10 9 9 9 10 9 9 10 9 9 9 9 9 9 9 10 10 11 11 11 12
13 13 13 13 13 12 12 12 12 12 13 13 12 11 11 12 11 12 12 11 11 11 11 11 11 11 11 11 11 11 10 10 10 11 11 11 11 11 11 11 12 12 13
14 14 14 14 14 13 13 13 12 13 13 13 13 12 12 12 12 13 13 13 12 12 12 12 11 11 12 12 11 12 11 11 11 11 12 11 12 12 12 12 13 13 13
15 15 15 15 14 14 14 14 13 13 13 13 12 12 12 13 13 13 13 12 12 12 12 12 12 12 12 12 12 12 12 12 12 12 12 12 13 13 14 13 13 14 14
15 16 16 15 15 15 14 15 14 13 13 13 12 12 13 14 14 14 13 12 13 13 13 13 13 12 12 11 12 12 13 13 13 13 14 14 14 15 15 15 15 14 15
17 16 16 16 15 16 16 15 15 15 14 14 13 13 13 14 14 14 14 13 13 13 13 14 13 13 12 13 13 13 13 13 14 14 15 15 15 15 15 15 15 15 16
16 17 17 17 16 16 16 16 16 16 16 14 13 12 13 14 14 15 14 14 13 14 14 13 14 13 13 13 13 14 14 14 14 15 15 15 16 16 16 16 16 16 17
17 17 17 17 18 17 17 16 16 17 16 15 14 13 13 14 15 15 15 15 15 14 14 14 14 14 14 14 14 14 14 14 15 15 16 16 16 17 17 17 17 18 18
18 17 17 17 17 17 17 17 16 17 17 16 15 14 13 14 14 14 15 15 15 15 15 14 14 15 14 15 15 15 15 15 16 16 16 16 17 17 17 17 18 18 19
18 17 17 17 16 16 16 17 17 16 17 17 16 15 15 15 15 15 15 15 16 16 16 16 15 15 15 15 15 15 15 16 16 16 16 16 16 16 16 17 17 18 19
18 18 17 17 17 16 16 16 16 16 16 17 16 17 16 16 16 17 16 16 17 17 17 16 15 16 16 16 16 16 16 16 17 16 16 16 16 17 17 17 17 17 18
19 18 18 18 18 17 16 16 16 17 17 17 17 17 17 17 17 17 17 16 17 17 17 17 16 16 17 17 16 17 17 17 17 18 17 17 17 18 18 19 19 19 19
19 19 19 19 18 18 17 17 17 17 17 17 17 17 18 18 18 18 17 17 18 18 17 17 17 17 17 17 18 18 19 19 18 18 18 19 19 19 19 20 21 20 20
19 20 19 19 18 18 18 18 18 18 18 17 17 17 18 18 19 19 19 18 18 18 18 18 18 18 18 18 18 19 19 18 18 19 19 20 20 20 20 21 21 21 21
19 19 19 19 19 19 18 18 18 18 18 17 17 17 17 18 19 18 18 17 18 18 18 19 18 19 18 19 19 18 18 18 19 19 20 21 21 21 21 21 21 21 21
Wind_Direction
330 328 328 316 305 298 277 264 250 241 227 219 213 220 225 180 118 103 54 58 39 39 62 56 98 66 77 93 105 113 117 120 144 155 182 200 208 215 220 221 221 218 205
324 317 314 308 301 299 289 267 257 253 247 243 242 237 234 216 218 290 269 279 302 295 44 318 288 6 46 122 125 97 113 106 105 211 230 225 219 217 221 219 228 225 228
313 313 308 306 300 292 294 285 267 260 258 254 253 245 239 241 244 254 270 289 288 262 233 237 253 250 234 216 215 275 251 211 224 244 246 243 232 238 252 246 243 237 239
303 304 301 303 297 289 290 290 276 272 265 259 254 252 249 247 246 252 254 268 279 261 248 244 245 242 240 230 244 253 244 258 264 254 260 246 243 255 264 268 254 245 246
299 300 296 293 291 291 289 286 278 277 273 266 259 256 251 247 244 249 256 258 262 254 249 242 246 252 253 251 247 246 244 257 269 266 261 248 245 254 259 264 259 254 253
294 294 293 288 286 288 289 283 277 275 278 274 265 259 253 249 248 249 252 256 258 255 250 250 250 252 259 257 252 246 249 258 261 264 252 245 242 248 254 253 249 250 246
291 292 289 287 281 280 282 280 277 278 277 272 269 268 264 254 248 248 248 249 253 256 255 257 254 250 253 253 253 250 256 260 256 255 255 251 247 249 248 243 243 237 241
292 290 287 285 282 277 279 281 281 279 278 271 269 268 266 255 249 249 248 247 247 248 249 249 250 254 255 254 255 251 250 254 253 259 260 259 252 250 251 245 246 245 249
293 290 285 281 280 279 279 279 280 278 276 270 265 264 261 253 248 249 249 248 248 248 248 247 249 252 254 254 258 260 255 258 261 258 257 261 262 260 258 253 254 254 253
291 288 283 282 279 278 278 277 276 276 275 272 266 262 258 251 247 248 246 245 246 248 251 252 252 250 253 254 258 262 263 263 263 264 263 264 263 262 261 259 258 255 254
286 284 281 282 280 278 279 278 275 270 270 270 265 262 254 250 247 248 245 242 243 246 251 255 254 252 256 255 258 259 263 263 262 264 267 266 265 268 267 262 261 257 256
283 281 279 282 280 277 277 278 276 271 264 267 268 265 256 252 249 246 242 241 243 246 248 252 253 256 260 259 261 259 259 261 261 263 268 270 270 269 268 263 261 258 258
281 279 280 281 281 278 276 276 274 272 266 264 264 265 261 256 252 248 243 242 244 245 247 250 253 256 260 260 260 259 259 259 261 265 267 270 272 273 269 265 263 260 259
281 278 280 281 281 278 275 274 271 271 269 266 260 260 260 255 253 250 245 245 243 243 245 249 253 257 260 261 261 258 259 259 263 267 270 271 272 273 274 267 267 266 266
281 279 279 278 278 277 274 272 270 270 269 265 261 259 259 253 252 251 247 246 244 244 245 248 251 257 260 259 260 259 257 258 259 263 268 270 270 272 274 273 269 267 266
281 280 278 278 276 274 274 271 270 270 266 263 263 258 256 252 250 250 247 246 245 246 249 249 250 256 257 258 260 258 256 259 262 265 268 269 271 272 275 277 274 271 268
285 282 280 277 275 272 271 269 266 265 267 265 263 259 255 253 250 248 249 247 244 247 250 251 253 254 254 257 260 258 257 260 264 267 271 273 273 275 276 275 273 272 272
287 286 281 277 275 270 268 265 264 264 265 264 259 258 254 251 249 249 251 249 247 248 251 255 254 254 257 259 259 260 261 263 267 271 274 275 276 277 275 271 269 271 272
286 287 286 283 277 271 265 262 262 262 261 260 259 256 254 253 253 254 252 250 250 249 251 254 255 257 259 259 259 261 262 266 271 275 275 276 276 277 276 272 271 272 272
284 286 287 285 283 272 265 262 261 260 262 258 257 254 252 254 257 259 255 252 250 251 254 256 258 258 261 261 261 264 267 271 274 275 277 277 277 277 277 276 274 274 274
281 284 285 285 284 275 267 265 262 261 259 256 256 255 253 253 256 259 257 254 252 253 255 257 260 261 261 263 266 269 269 272 274 276 278 278 278 278 279 279 279 276 275
278 280 282 284 281 273 266 263 261 260 264 258 257 258 255 255 256 256 257 258 255 254 256 258 260 263 262 265 268 269 269 271 275 278 279 278 278 281 281 281 282 279 277
274 276 280 282 278 272 267 263 261 262 263 259 261 259 256 255 255 255 255 257 256 257 257 256 260 263 264 266 269 270 270 272 277 279 280 278 279 281 281 281 282 280 278
273 274 278 278 275 271 267 264 263 262 262 260 260 260 256 256 255 254 253 255 257 257 256 256 257 261 264 267 269 271 272 274 276 276 277 278 279 280 280 281 281 280 279
271 273 275 276 273 270 268 264 262 259 259 258 259 260 259 256 253 252 255 257 256 254 253 253 257 260 263 266 269 272 273 275 276 275 277 279 279 279 279 279 280 278 279
272 272 274 275 273 269 266 263 262 259 255 254 257 259 258 256 253 252 254 255 254 252 252 254 257 260 263 267 271 272 273 276 279 278 279 280 279 279 279 278 277 276 276
Height
5897 5896 5896 5896 5895 5895 5895 5895 5894 5894 5894 5893 5893 5892 5892 5892 5891 5891 5891 5891 5890 5890 5889 5889 5889 5888 5888 5888 5888 5888 5888 5888 5888 5888 5888 5888 5888 5889 5889 5889 5889 5889 5889
5896 5895 5895 5894 5894 5894 5894 5893 5893 5893 5893 5892 5892 5892 5891 5891 5891 5890 5890 5890 5890 5889 5889 5889 5888 5888 5888 5888 5888 5888 5888 5888 5888 5888 5888 5888 5888 5889 5889 5889 5889 5889 5889
5894 5894 5893 5893 5893 5892 5892 5892 5892 5891 5891 5891 5891 5890 5890 5890 5890 5890 5889 5889 5889 5889 5888 5888 5888 5888 5888 5888 5887 5887 5887 5887 5887 5888 5888 5888 5888 5888 5888 5888 5888 5888 5889
5893 5892 5892 5892 5891 5891 5891 5890 5890 5890 5890 5889 5889 5889 5889 5889 5889 5889 5888 5888 5888 5888 5888 5888 5888 5887 5887 5887 5887 5887 5887 5887 5887 5887 5887 5887 5888 5888 5888 5888 5887 5888 5888
5891 5890 5890 5890 5890 5890 5889 5889 5889 5888 5888 5888 5888 5888 5888 5888 5887 5887 5887 5887 5887 5887 5887 5887 5887 5887 5887 5887 5886 5886 5886 5886 5886 5886 5887 5887 5887 5887 5887 5887 5887 5887 5887
5889 5888 5888 5888 5888 5888 5888 5887 5887 5887 5886 5886 5886 5886 5886 5886 5886 5886 5886 5886 5886 5886 5886 5886 5886 5886 5886 5886 5886 5886 5886 5886 5886 5886 5886 5886 5886 5886 5886 5886 5886 5886 5887
5887 5886 5886 5886 5886 5886 5886 5885 5885 5885 5884 5884 5884 5884 5884 5884 5884 5884 5884 5884 5885 5885 5885 5885 5885 5885 5885 5885 5885 5885 5885 5885 5885 5885 5885 5885 5885 5885 5886 5885 5885 5886 5886
5885 5884 5884 5884 5884 5884 5884 5883 5883 5882 5882 5882 5882 5882 5882 5882 5882 5883 5883 5883 5883 5883 5883 5883 5884 5884 5884 5884 5884 5884 5884 5884 5884 5884 5884 5884 5884 5884 5884 5884 5885 5885 5885
5883 5882 5882 5881 5881 5881 5881 5881 5881 5880 5880 5880 5879 5880 5880 5879 5880 5880 5881 5881 5881 5882 5882 5882 5882 5882 5883 5883 5883 5883 5883 5883 5883 5883 5882 5882 5883 5883 5883 5883 5884 5884 5884
5880 5880 5879 5879 5879 5878 5878 5878 5878 5877 5877 5877 5877 5877 5877 5877 5877 5878 5878 5879 5879 5880 5880 5880 5880 5881 5881 5881 5881 5881 5881 5881 5881 5881 5881 5881 5881 5882 5881 5882 5882 5882 5883
5878 5877 5877 5876 5876 5875 5875 5875 5875 5874 5874 5874 5874 5874 5874 5874 5875 5875 5876 5876 5877 5877 5878 5878 5879 5879 5879 5879 5879 5879 5879 5879 5879 5879 5879 5880 5880 5880 5880 5880 5880 5880 5881
5875 5875 5874 5874 5873 5872 5872 5872 5872 5871 5871 5871 5870 5871 5872 5872 5872 5873 5873 5874 5874 5875 5875 5876 5876 5876 5877 5877 5877 5877 5877 5877 5878 5878 5878 5878 5878 5878 5878 5878 5878 5878 5878
5873 5872 5871 5871 5870 5869 5869 5869 5868 5868 5868 5867 5868 5868 5869 5869 5869 5870 5871 5871 5871 5872 5873 5873 5874 5874 5874 5874 5875 5875 5875 5875 5875 5875 5876 5876 5876 5875 5875 5875 5875 5875 5875
5870 5869 5868 5868 5867 5866 5866 5866 5865 5865 5865 5864 5865 5865 5866 5866 5866 5867 5868 5868 5869 5869 5870 5871 5871 5871 5872 5872 5872 5872 5873 5873 5873 5873 5873 5873 5873 5873 5872 5872 5872 5872 5873
5867 5866 5865 5864 5864 5863 5863 5862 5862 5862 5861 5861 5862 5862 5863 5863 5864 5864 5865 5866 5866 5866 5867 5868 5868 5869 5869 5869 5869 5870 5870 5870 5870 5870 5870 5870 5870 5870 5870 5869 5869 5869 5869
5864 5863 5862 5861 5860 5859 5859 5859 5859 5858 5858 5858 5859 5859 5860 5860 5861 5862 5862 5863 5863 5864 5864 5865 5866 5866 5866 5866 5867 5867 5867 5868 5868 5867 5867 5867 5867 5867 5867 5866 5866 5866 5866
5860 5859 5858 5857 5856 5855 5855 5855 5855 5855 5855 5855 5855 5856 5856 5857 5858 5858 5859 5860 5860 5861 5862 5862 5863 5863 5863 5864 5864 5864 5864 5864 5864 5864 5864 5864 5864 5864 5863 5863 5862 5862 5862
5856 5855 5854 5852 5852 5851 5851 5851 5851 5851 5851 5852 5852 5853 5853 5854 5854 5855 5856 5856 5857 5858 5858 5859 5859 5860 5860 5860 5861 5861 5861 5861 5861 5861 5861 5860 5860 5860 5859 5859 5859 5858 5858
5852 5851 5849 5848 5847 5847 5847 5847 5847 5847 5848 5848 5849 5849 5850 5851 5851 5852 5852 5853 5854 5855 5855 5856 5856 5856 5857 5857 5857 5857 5857 5858 5858 5857 5857 5856 5856 5855 5855 5855 5854 5854 5854
5848 5847 5845 5844 5843 5842 5842 5842 5843 5844 5844 5845 5845 5846 5847 5847 5848 5848 5849 5849 5850 5851 5852 5853 5853 5853 5853 5853 5853 5854 5854 5854 5854 5853 5853 5852 5852 5851 5851 5850 5850 5849 5849
5844 5843 5841 5840 5839 5838 5838 5839 5839 5840 5840 5841 5842 5842 5843 5844 5844 5845 5845 5846 5847 5848 5849 5849 5849 5850 5850 5850 5850 5850 5850 5850 5850 5849 5849 5848 5848 5847 5846 5846 5845 5845 5844
5840 5839 5838 5836 5835 5835 5834 5835 5836 5836 5837 5837 5838 5839 5839 5840 5840 5841 5842 5842 5843 5844 5845 5845 5846 5846 5846 5846 5846 5846 5846 5846 5845 5845 5845 5844 5843 5843 5842 5841 5840 5840 5839
5835 5835 5833 5832 5831 5831 5831 5831 5832 5832 5833 5833 5834 5835 5836 5836 5837 5837 5838 5839 5839 5840 5841 5841 5842 5842 5842 5842 5842 5842 5842 5842 5841 5841 5840 5840 5839 5838 5837 5836 5836 5835 5834
5831 5830 5829 5829 5828 5827 5828 5828 5828 5828 5828 5829 5830 5831 5831 5832 5833 5833 5834 5835 5835 5836 5836 5837 5837 5837 5837 5837 5837 5837 5837 5837 5837 5836 5836 5835 5834 5833 5832 5831 5830 5830 5829
5826 5826 5825 5824 5823 5823 5823 5823 5824 5824 5825 5825 5826 5826 5826 5827 5828 5828 5829 5830 5830 5831 5832 5832 5832 5833 5833 5833 5833 5833 5832 5832 5832 5831 5831 5830 5829 5828 5827 5826 5825 5824 5824
5822 5821 5820 5820 5819 5818 5819 5819 5819 5819 5820 5821 5821 5822 5822 5823 5823 5824 5824 5825 5826 5826 5827 5827 5828 5828 5828 5828 5828 5828 5828 5827 5827 5826 5825 5824 5823 5822 5821 5820 5820 5819 5818